CAPE
0 0 0 0 3 0 0 0 7 12 29 72 102 135 149 141 217 197 143 127 164 155
0 0 0 8 12 3 0 1 6 14 31 30 89 91 113 154 141 118 94 104 125 110
1 7 5 7 7 10 8 8 24 31 38 41 58 68 113 84 76 55 56 82 69 110
0 1 9 6 12 21 22 11 12 24 19 18 25 42 42 40 41 43 57 66 83 38
4 5 3 8 11 16 16 18 17 14 15 12 18 25 11 6 11 23 35 36 44 0
1 2 4 7 9 10 9 9 13 15 13 15 18 21 37 46 41 36 54 26 0 0
0 0 0 1 3 5 15 13 12 23 31 28 22 17 19 17 26 30 3 0 0 1
0 0 0 2 2 4 5 7 6 6 13 11 8 10 11 16 13 19 15 0 0 3
0 0 0 8 11 4 5 8 5 6 2 9 0 0 0 0 0 0 0 1 5 6
15 0 0 0 0 0 2 4 0 0 0 0 3 2 1 0 1 3 5 5 3 3
38 20 13 12 6 0 0 0 1 4 6 6 5 1 0 1 4 4 4 4 5 4
97 53 4 0 0 2 1 5 9 7 5 5 5 3 2 0 2 4 4 1 1 0
0 0 0 1 4 8 10 12 7 7 4 4 3 1 0 0 0 0 0 0 2 4
4 4 6 7 7 8 9 8 7 7 5 3 2 1 0 0 0 0 0 0 1 1
CIN
-1 0 0 -6 -10 0 -2 0 -29 -40 -40 -3 -3 -2 -1 -4 -5 -6 -5 -4 -6 -2
0 0 0 -1 -1 -2 0 -11 -25 -35 -32 -12 -2 -3 -1 -2 -6 -4 -3 -2 -4 -6
-1 -2 -1 -2 -5 -1 -2 -7 -1 -14 -9 -14 -9 -4 -6 -6 -2 -5 -4 -1 -2 -4
-1 -2 -1 -3 -1 -2 -2 -2 -1 -1 -7 -3 -7 -14 -8 -8 -9 -2 -2 -6 -2 -23
-1 -1 -2 0 -1 0 -1 -1 0 -1 -1 -1 0 0 -2 -3 -13 -6 -2 -4 -14 0
-1 -1 -1 -1 -1 -2 -2 -1 -1 -1 0 0 -1 0 -8 -5 -1 -1 -1 -13 0 0
0 0 0 -1 -84 -164 -112 -99 -46 -63 -53 -49 -36 -22 -26 -9 -2 -12 -6 0 0 0
0 0 -1 -2 -1 -1 -1 -101 -2 -1 -12 -12 -1 -1 -1 -2 -4 -6 -10 0 0 0
0 0 0 -219 -205 -1 -1 -1 -1 -1 -2 -1 0 0 0 0 0 0 0 0 0 0
-317 0 0 0 0 -1 -1 -1 0 0 0 0 0 0 0 0 0 0 0 0 0 0
-309 -300 -270 -251 -109 0 0 0 0 0 0 0 0 0 0 0 0 0 0 0 0 0
-279 -271 -52 0 0 0 0 0 0 0 0 0 0 0 0 0 0 0 0 0 0 0
0 0 0 0 0 0 0 0 0 0 0 0 0 0 0 0 0 0 0 0 0 0
0 0 0 0 0 0 0 0 0 0 0 0 0 0 0 0 0 0 0 0 0 0
Wind_Speed
21 10 13 19 25 27 26 29 29 33 35 27 14 15 14 9 10 9 12 11 12 14
17 19 18 17 20 25 29 28 26 27 20 26 17 14 10 13 14 12 12 13 14 17
17 19 19 18 19 18 20 23 21 23 22 14 13 12 12 12 12 13 15 22 20 21
12 16 16 16 15 18 16 17 20 15 16 15 14 14 15 14 14 16 19 19 21 23
15 14 16 14 12 12 12 13 11 13 12 12 12 14 15 16 16 19 22 24 24 24
11 13 13 12 12 10 11 9 10 12 12 12 14 16 16 17 20 21 23 25 27 30
10 10 10 9 10 10 9 9 9 10 12 14 16 17 19 19 20 22 24 25 28 32
13 10 8 8 9 9 10 10 9 10 14 17 19 20 21 23 25 27 27 30 30 32
10 11 10 8 8 9 10 11 13 16 16 18 23 28 28 28 31 30 28 28 29 30
9 9 8 7 7 7 8 11 16 17 20 22 25 26 26 25 25 25 25 26 27 28
7 7 6 6 7 10 12 13 15 18 19 19 22 21 20 21 21 22 24 25 26 25
7 6 7 8 9 11 11 13 15 15 15 16 18 19 20 19 20 21 23 23 23 24
10 8 8 8 8 9 9 9 10 12 14 15 17 19 19 18 18 19 20 21 22 24
10 9 7 7 7 6 7 7 9 11 13 15 17 19 19 19 19 20 21 23 24 26
Wind_Direction
153 133 139 158 169 171 171 175 176 185 194 186 181 187 193 245 267 253 272 273 279 286
150 157 158 151 159 171 181 183 183 186 186 195 195 204 245 273 273 264 266 273 278 286
153 159 158 158 160 162 170 179 180 190 195 203 213 222 236 239 244 257 273 293 292 292
153 160 158 160 158 166 167 171 181 183 192 199 205 212 217 232 253 266 280 281 284 292
159 162 170 171 170 168 174 177 189 196 203 214 227 230 234 246 263 272 282 286 288 291
175 173 178 183 185 187 192 204 209 215 227 245 265 271 267 271 279 281 289 292 294 297
197 199 200 204 203 207 214 226 230 248 257 268 275 276 283 285 286 290 294 293 296 302
185 196 213 235 240 237 248 251 248 263 280 287 289 292 291 294 297 297 298 305 308 312
192 197 205 217 232 254 262 271 280 285 286 290 297 298 300 300 302 304 305 307 312 316
194 198 208 218 232 251 261 279 293 297 298 299 303 307 308 310 311 312 314 314 315 318
211 215 230 240 267 286 293 294 299 303 307 310 314 318 320 322 321 322 323 324 324 325
240 242 266 274 284 290 294 303 306 314 319 322 324 326 327 329 328 329 331 333 334 334
267 268 274 281 290 299 306 309 319 330 334 334 334 338 339 338 337 336 337 339 340 340
269 267 274 280 293 302 313 323 333 346 344 347 346 346 348 346 342 337 335 335 335 335